Regional Weather Roundup
Issued by NWS Binghamton, NY

Home | Current Version | Previous Version | Text Only | Print | Product List | Glossary On
Versions: 1 2 3 4 5 6 7 8 9 10 11 12 13 14 15 16 17 18 19 20 21 22 23 24 25 26 27 28 29 30 31 32 33 34 35 36 37 38 39 40 41 42 43 44 45 46 47 48 49 50
000
ASUS41 KBGM 181710
RWRBGM

REGIONAL WEATHER ROUNDUP
NATIONAL WEATHER SERVICE BINGHAMTON NY
1200 PM EST MON DEC 18 2017

Note: "fair" indicates few or no clouds below 12,000 feet with no
significant weather and/or obstructions to visibility.

* = Station(s) that does not report precipitation, such as rain,
snow, etc, also no thunder or fog.

NYZ009-015>018-022>025-036-037-044>046-055>057-062-181800
...Central New York...

CITY           SKY/WX    TMP DP  RH WIND       PRES   REMARKS
Binghamton     CLOUDY    35  29  78 SW9       29.93F WCI  28
Cortland       LGT RAIN  36  34  93 SW5       29.93F WCI  32
Dansville      CLOUDY    41  33  73 CALM      29.93F
Elmira         CLOUDY    37  31  78 CALM      29.95F
Seneca Falls   LGT RAIN  37  34  87 S10       29.93F WCI  30
Ithaca         CLOUDY    37  32  81 S7        29.94F WCI  32
Hornell        CLOUDY    39  34  81 W7        29.96F WCI  34
Monticello     CLOUDY    37  33  85 CALM      29.99F FOG
Penn Yan       CLOUDY    39  32  76 S8        29.92F WCI  33
Rome           MIX PCPN  29  26  89 E8        29.96F WCI  21
Sidney         CLOUDY    37  32  81 CALM      29.97S
Syracuse       LGT RAIN  32  31  96 CALM      29.93F FOG
$$

PAZ038>040-043-044-047-048-072-181800
...Northeast Pennsylvania...

CITY           SKY/WX    TMP DP  RH WIND       PRES   REMARKS
Hazleton       CLOUDY    45  32  61 SW8       30.02F
Scranton       CLOUDY    38  32  79 W5        30.01F HAZE    WCI  34
$$
&&
KEY
WCI = Wind Chill Index
VSB = Visibility
HX  = Heat Index
$$



USA.gov is the U.S. government's official web portal to all federal, state and local government web resources and services.